Time,TemperatureF,DewpointF,PressureIn,WindDirection,WindDirectionDegrees,WindSpeedMPH,WindSpeedGustMPH,Humidity,HourlyPrecipIn,Conditions,Clouds,dailyrainin,SoftwareType,DateUTC
2013-03-14 00:00:00,35.0,21.7,30.06,SW,220,4.0,14.0,58,0.00,,,0.00,WUHU216DAVISVP2,2013-03-14 04:00:00,
2013-03-14 00:05:00,34.9,21.6,30.06,West,279,10.0,24.0,58,0.00,,,0.00,WUHU216DAVISVP2,2013-03-14 04:05:00,
2013-03-14 00:10:00,34.9,21.6,30.06,NW,321,5.0,24.0,58,0.00,,,0.00,WUHU216DAVISVP2,2013-03-14 04:10:00,
2013-03-14 00:15:00,34.9,21.6,30.06,NNW,336,1.0,24.0,58,0.00,,,0.00,WUHU216DAVISVP2,2013-03-14 04:15:00,
2013-03-14 00:20:00,35.0,21.7,30.06,West,273,1.0,24.0,58,0.00,,,0.00,WUHU216DAVISVP2,2013-03-14 04:20:00,
2013-03-14 00:25:00,35.0,21.7,30.07,WNW,294,1.0,13.0,58,0.00,,,0.00,WUHU216DAVISVP2,2013-03-14 04:25:00,
2013-03-14 00:30:00,34.9,21.6,30.07,WNW,295,6.0,12.0,58,0.00,,,0.00,WUHU216DAVISVP2,2013-03-14 04:30:00,
2013-03-14 00:35:00,34.8,21.6,30.06,WSW,252,6.0,13.0,58,0.00,,,0.00,WUHU216DAVISVP2,2013-03-14 04:35:00,
2013-03-14 00:40:00,34.8,21.6,30.06,West,269,3.0,13.0,58,0.00,,,0.00,WUHU216DAVISVP2,2013-03-14 04:40:00,
2013-03-14 00:46:00,34.7,21.5,30.06,WNW,286,4.0,13.0,58,0.00,,,0.00,WUHU216DAVISVP2,2013-03-14 04:46:00,
2013-03-14 00:51:00,34.6,21.4,30.06,NW,304,3.0,13.0,58,0.00,,,0.00,WUHU216DAVISVP2,2013-03-14 04:51:00,
2013-03-14 00:56:00,34.5,20.9,30.06,NNW,330,3.0,12.0,57,0.00,,,0.00,WUHU216DAVISVP2,2013-03-14 04:56:00,
2013-03-14 01:01:00,34.3,21.1,30.06,West,267,2.0,12.0,58,0.00,,,0.00,WUHU216DAVISVP2,2013-03-14 05:01:00,
2013-03-14 01:06:00,34.1,20.9,30.06,West,281,9.0,15.0,58,0.00,,,0.00,WUHU216DAVISVP2,2013-03-14 05:06:00,
2013-03-14 01:11:00,34.0,20.8,30.06,WNW,287,3.0,15.0,58,0.00,,,0.00,WUHU216DAVISVP2,2013-03-14 05:11:00,
2013-03-14 01:15:00,33.9,21.1,30.06,West,281,1.0,15.0,59,0.00,,,0.00,WUHU216DAVISVP2,2013-03-14 05:15:00,
2013-03-14 01:21:00,33.7,20.5,30.06,West,266,4.0,15.0,58,0.00,,,0.00,WUHU216DAVISVP2,2013-03-14 05:21:00,
2013-03-14 01:26:00,33.6,20.8,30.06,NW,307,3.0,10.0,59,0.00,,,0.00,WUHU216DAVISVP2,2013-03-14 05:26:00,
2013-03-14 01:31:00,33.5,20.7,30.06,WNW,282,1.0,10.0,59,0.00,,,0.00,WUHU216DAVISVP2,2013-03-14 05:31:00,
2013-03-14 01:36:00,33.4,20.6,30.06,West,279,1.0,10.0,59,0.00,,,0.00,WUHU216DAVISVP2,2013-03-14 05:36:00,
2013-03-14 01:41:00,33.4,20.6,30.05,West,273,8.0,13.0,59,0.00,,,0.00,WUHU216DAVISVP2,2013-03-14 05:41:00,
2013-03-14 01:46:00,33.4,20.6,30.05,WNW,296,0.0,13.0,59,0.00,,,0.00,WUHU216DAVISVP2,2013-03-14 05:46:00,
2013-03-14 01:51:00,33.4,20.6,30.05,West,269,2.0,13.0,59,0.00,,,0.00,WUHU216DAVISVP2,2013-03-14 05:51:00,
2013-03-14 01:56:00,33.5,20.7,30.05,NNE,13,0.0,13.0,59,0.00,,,0.00,WUHU216DAVISVP2,2013-03-14 05:56:00,
2013-03-14 02:01:00,33.6,20.8,30.06,West,262,0.0,11.0,59,0.00,,,0.00,WUHU216DAVISVP2,2013-03-14 06:01:00,
2013-03-14 02:06:00,33.6,20.8,30.05,West,269,8.0,11.0,59,0.00,,,0.00,WUHU216DAVISVP2,2013-03-14 06:06:00,
2013-03-14 02:11:00,33.7,20.5,30.05,West,261,8.0,11.0,58,0.00,,,0.00,WUHU216DAVISVP2,2013-03-14 06:11:00,
2013-03-14 02:16:00,33.8,20.6,30.05,North,355,2.0,15.0,58,0.00,,,0.00,WUHU216DAVISVP2,2013-03-14 06:16:00,
2013-03-14 02:21:00,33.8,20.6,30.06,WNW,292,3.0,15.0,58,0.00,,,0.00,WUHU216DAVISVP2,2013-03-14 06:21:00,
2013-03-14 02:27:00,33.7,20.9,30.06,West,262,0.0,15.0,59,0.00,,,0.00,WUHU216DAVISVP2,2013-03-14 06:27:00,
2013-03-14 02:31:00,33.6,20.8,30.06,West,269,3.0,14.0,59,0.00,,,0.00,WUHU216DAVISVP2,2013-03-14 06:31:00,
2013-03-14 02:37:00,33.4,20.6,30.06,WNW,284,3.0,9.0,59,0.00,,,0.00,WUHU216DAVISVP2,2013-03-14 06:37:00,
2013-03-14 02:42:00,33.3,20.6,30.06,WNW,291,3.0,9.0,59,0.00,,,0.00,WUHU216DAVISVP2,2013-03-14 06:42:00,
2013-03-14 02:47:00,33.2,20.9,30.06,WNW,290,1.0,9.0,60,0.00,,,0.00,WUHU216DAVISVP2,2013-03-14 06:47:00,
2013-03-14 02:52:00,33.2,20.9,30.06,West,272,2.0,9.0,60,0.00,,,0.00,WUHU216DAVISVP2,2013-03-14 06:52:00,
2013-03-14 02:57:00,33.2,20.5,30.06,West,276,1.0,9.0,59,0.00,,,0.00,WUHU216DAVISVP2,2013-03-14 06:57:00,
2013-03-14 03:02:00,33.1,20.4,30.06,West,266,1.0,9.0,59,0.00,,,0.00,WUHU216DAVISVP2,2013-03-14 07:02:00,
2013-03-14 03:07:00,33.0,20.3,30.06,West,263,11.0,11.0,59,0.00,,,0.00,WUHU216DAVISVP2,2013-03-14 07:07:00,
2013-03-14 03:12:00,33.3,19.7,30.05,WNW,298,1.0,15.0,57,0.00,,,0.00,WUHU216DAVISVP2,2013-03-14 07:12:00,
2013-03-14 03:17:00,33.4,19.8,30.06,West,272,4.0,15.0,57,0.00,,,0.00,WUHU216DAVISVP2,2013-03-14 07:17:00,
2013-03-14 03:22:00,33.5,19.9,30.06,WNW,294,1.0,17.0,57,0.00,,,0.00,WUHU216DAVISVP2,2013-03-14 07:22:00,
2013-03-14 03:27:00,33.5,19.9,30.06,WNW,293,1.0,17.0,57,0.00,,,0.00,WUHU216DAVISVP2,2013-03-14 07:27:00,
2013-03-14 03:32:00,33.5,20.3,30.06,West,279,5.0,17.0,58,0.00,,,0.00,WUHU216DAVISVP2,2013-03-14 07:32:00,
2013-03-14 03:37:00,33.5,20.3,30.06,NNW,339,1.0,9.0,58,0.00,,,0.00,WUHU216DAVISVP2,2013-03-14 07:37:00,
2013-03-14 03:42:00,33.7,20.5,30.06,NW,311,2.0,9.0,58,0.00,,,0.00,WUHU216DAVISVP2,2013-03-14 07:42:00,
2013-03-14 03:47:00,33.8,20.6,30.05,WNW,302,0.0,9.0,58,0.00,,,0.00,WUHU216DAVISVP2,2013-03-14 07:47:00,
2013-03-14 03:52:00,33.8,20.6,30.05,North,5,3.0,9.0,58,0.00,,,0.00,WUHU216DAVISVP2,2013-03-14 07:52:00,
2013-03-14 03:57:00,33.8,20.6,30.05,North,5,2.0,8.0,58,0.00,,,0.00,WUHU216DAVISVP2,2013-03-14 07:57:00,
2013-03-14 04:02:00,33.9,21.5,30.05,WNW,298,2.0,8.0,60,0.00,,,0.00,WUHU216DAVISVP2,2013-03-14 08:02:00,
2013-03-14 04:07:00,33.8,21.0,30.06,North,360,0.0,10.0,59,0.00,,,0.00,WUHU216DAVISVP2,2013-03-14 08:07:00,
2013-03-14 04:12:00,33.7,21.3,30.05,North,5,0.0,11.0,60,0.00,,,0.00,WUHU216DAVISVP2,2013-03-14 08:12:00,
2013-03-14 04:17:00,33.4,21.4,30.06,NW,312,0.0,11.0,61,0.00,,,0.00,WUHU216DAVISVP2,2013-03-14 08:17:00,
2013-03-14 04:22:00,33.2,21.3,30.06,WNW,287,4.0,11.0,61,0.00,,,0.00,WUHU216DAVISVP2,2013-03-14 08:22:00,
2013-03-14 04:27:00,33.0,20.7,30.05,NW,308,1.0,10.0,60,0.00,,,0.00,WUHU216DAVISVP2,2013-03-14 08:27:00,
2013-03-14 04:32:00,32.9,20.6,30.05,West,272,3.0,10.0,60,0.00,,,0.00,WUHU216DAVISVP2,2013-03-14 08:32:00,
2013-03-14 04:37:00,32.8,20.5,30.05,West,266,3.0,10.0,60,0.00,,,0.00,WUHU216DAVISVP2,2013-03-14 08:37:00,
2013-03-14 04:42:00,32.6,20.3,30.05,West,279,1.0,10.0,60,0.00,,,0.00,WUHU216DAVISVP2,2013-03-14 08:42:00,
2013-03-14 04:47:00,32.5,20.2,30.05,WNW,299,2.0,10.0,60,0.00,,,0.00,WUHU216DAVISVP2,2013-03-14 08:47:00,
2013-03-14 04:52:00,32.4,20.5,30.05,West,273,1.0,10.0,61,0.00,,,0.00,WUHU216DAVISVP2,2013-03-14 08:52:00,
2013-03-14 04:57:00,32.3,20.4,30.06,West,270,0.0,10.0,61,0.00,,,0.00,WUHU216DAVISVP2,2013-03-14 08:57:00,
2013-03-14 05:02:00,32.1,20.2,30.05,WNW,284,2.0,7.0,61,0.00,,,0.00,WUHU216DAVISVP2,2013-03-14 09:02:00,
2013-03-14 05:07:00,32.0,20.1,30.05,WSW,255,2.0,7.0,61,0.00,,,0.00,WUHU216DAVISVP2,2013-03-14 09:07:00,
2013-03-14 05:12:00,31.9,20.0,30.05,WSW,245,3.0,7.0,61,0.00,,,0.00,WUHU216DAVISVP2,2013-03-14 09:12:00,
2013-03-14 05:17:00,31.8,20.3,30.05,West,264,7.0,7.0,62,0.00,,,0.00,WUHU216DAVISVP2,2013-03-14 09:17:00,
2013-03-14 05:22:00,31.8,20.3,30.06,North,350,4.0,10.0,62,0.00,,,0.00,WUHU216DAVISVP2,2013-03-14 09:22:00,
2013-03-14 05:27:00,31.9,20.8,30.06,WNW,289,10.0,10.0,63,0.00,,,0.00,WUHU216DAVISVP2,2013-03-14 09:27:00,
2013-03-14 05:32:00,31.9,20.4,30.06,WSW,258,5.0,10.0,62,0.00,,,0.00,WUHU216DAVISVP2,2013-03-14 09:32:00,
2013-03-14 05:37:00,32.0,20.5,30.06,West,266,7.0,16.0,62,0.00,,,0.00,WUHU216DAVISVP2,2013-03-14 09:37:00,
2013-03-14 05:42:00,31.9,20.8,30.06,West,271,1.0,16.0,63,0.00,,,0.00,WUHU216DAVISVP2,2013-03-14 09:42:00,
2013-03-14 05:47:00,31.8,20.7,30.06,West,280,4.0,16.0,63,0.00,,,0.00,WUHU216DAVISVP2,2013-03-14 09:47:00,
2013-03-14 05:52:00,31.7,20.2,30.06,West,275,2.0,9.0,62,0.00,,,0.00,WUHU216DAVISVP2,2013-03-14 09:52:00,
2013-03-14 05:57:00,31.6,20.1,30.07,West,268,4.0,9.0,62,0.00,,,0.00,WUHU216DAVISVP2,2013-03-14 09:57:00,
2013-03-14 06:02:00,31.7,20.2,30.06,West,278,5.0,10.0,62,0.00,,,0.00,WUHU216DAVISVP2,2013-03-14 10:02:00,
2013-03-14 06:07:00,31.7,19.4,30.06,West,262,3.0,10.0,60,0.00,,,0.00,WUHU216DAVISVP2,2013-03-14 10:07:00,
2013-03-14 06:12:00,31.8,19.5,30.07,WSW,251,6.0,10.0,60,0.00,,,0.00,WUHU216DAVISVP2,2013-03-14 10:12:00,
2013-03-14 06:17:00,31.8,19.5,30.07,NW,323,2.0,10.0,60,0.00,,,0.00,WUHU216DAVISVP2,2013-03-14 10:17:00,
2013-03-14 06:22:00,31.7,19.4,30.07,WSW,255,4.0,10.0,60,0.00,,,0.00,WUHU216DAVISVP2,2013-03-14 10:22:00,
2013-03-14 06:28:00,31.8,19.1,30.07,WNW,290,4.0,10.0,59,0.00,,,0.00,WUHU216DAVISVP2,2013-03-14 10:28:00,
2013-03-14 06:33:00,31.8,19.1,30.07,West,280,6.0,10.0,59,0.00,,,0.00,WUHU216DAVISVP2,2013-03-14 10:33:00,
2013-03-14 06:38:00,31.9,18.8,30.07,West,271,8.0,10.0,58,0.00,,,0.00,WUHU216DAVISVP2,2013-03-14 10:38:00,
2013-03-14 06:43:00,31.9,19.2,30.07,West,259,5.0,10.0,59,0.00,,,0.00,WUHU216DAVISVP2,2013-03-14 10:43:00,
2013-03-14 06:48:00,32.0,18.9,30.07,WNW,288,4.0,10.0,58,0.00,,,0.00,WUHU216DAVISVP2,2013-03-14 10:48:00,
2013-03-14 06:53:00,32.1,19.4,30.08,WSW,256,6.0,10.0,59,0.00,,,0.00,WUHU216DAVISVP2,2013-03-14 10:53:00,
2013-03-14 06:58:00,32.1,19.0,30.08,WSW,257,5.0,12.0,58,0.00,,,0.00,WUHU216DAVISVP2,2013-03-14 10:58:00,
2013-03-14 07:03:00,32.3,19.6,30.08,WSW,248,6.0,12.0,59,0.00,,,0.00,WUHU216DAVISVP2,2013-03-14 11:03:00,
2013-03-14 07:08:00,32.3,19.6,30.08,NNW,340,5.0,12.0,59,0.00,,,0.00,WUHU216DAVISVP2,2013-03-14 11:08:00,
2013-03-14 07:13:00,32.4,19.7,30.08,East,92,2.0,12.0,59,0.00,,,0.00,WUHU216DAVISVP2,2013-03-14 11:13:00,
2013-03-14 07:18:00,32.5,19.8,30.08,West,262,0.0,16.0,59,0.00,,,0.00,WUHU216DAVISVP2,2013-03-14 11:18:00,
2013-03-14 07:23:00,32.5,19.8,30.08,WNW,295,4.0,16.0,59,0.00,,,0.00,WUHU216DAVISVP2,2013-03-14 11:23:00,
2013-03-14 07:28:00,32.5,19.8,30.08,WNW,298,3.0,16.0,59,0.00,,,0.00,WUHU216DAVISVP2,2013-03-14 11:28:00,
2013-03-14 07:33:00,32.5,20.2,30.09,West,277,1.0,11.0,60,0.00,,,0.00,WUHU216DAVISVP2,2013-03-14 11:33:00,
2013-03-14 07:38:00,32.6,19.9,30.09,WNW,291,4.0,11.0,59,0.00,,,0.00,WUHU216DAVISVP2,2013-03-14 11:38:00,
2013-03-14 07:43:00,32.6,19.9,30.09,West,268,5.0,11.0,59,0.00,,,0.00,WUHU216DAVISVP2,2013-03-14 11:43:00,
2013-03-14 07:48:00,32.8,19.7,30.09,West,275,1.0,16.0,58,0.00,,,0.00,WUHU216DAVISVP2,2013-03-14 11:48:00,
2013-03-14 07:53:00,32.8,20.1,30.09,West,267,7.0,16.0,59,0.00,,,0.00,WUHU216DAVISVP2,2013-03-14 11:53:00,
2013-03-14 07:58:00,32.9,19.8,30.09,West,275,7.0,16.0,58,0.00,,,0.00,WUHU216DAVISVP2,2013-03-14 11:58:00,
2013-03-14 08:03:00,33.0,20.3,30.09,WNW,293,7.0,16.0,59,0.00,,,0.00,WUHU216DAVISVP2,2013-03-14 12:03:00,
2013-03-14 08:08:00,33.0,19.4,30.10,West,275,6.0,16.0,57,0.00,,,0.00,WUHU216DAVISVP2,2013-03-14 12:08:00,
2013-03-14 08:13:00,33.1,19.5,30.10,West,280,10.0,14.0,57,0.00,,,0.00,WUHU216DAVISVP2,2013-03-14 12:13:00,
2013-03-14 08:18:00,33.2,19.6,30.10,NNW,331,4.0,17.0,57,0.00,,,0.00,WUHU216DAVISVP2,2013-03-14 12:18:00,
2013-03-14 08:23:00,33.2,19.6,30.10,NNW,333,4.0,17.0,57,0.00,,,0.00,WUHU216DAVISVP2,2013-03-14 12:23:00,
2013-03-14 08:28:00,33.2,19.2,30.10,WSW,252,2.0,17.0,56,0.00,,,0.00,WUHU216DAVISVP2,2013-03-14 12:28:00,
2013-03-14 08:33:00,33.2,18.8,30.10,West,269,15.0,17.0,55,0.00,,,0.00,WUHU216DAVISVP2,2013-03-14 12:33:00,
2013-03-14 08:38:00,33.2,19.2,30.10,WSW,238,6.0,17.0,56,0.00,,,0.00,WUHU216DAVISVP2,2013-03-14 12:38:00,
2013-03-14 08:43:00,33.1,19.1,30.10,NW,323,7.0,17.0,56,0.00,,,0.00,WUHU216DAVISVP2,2013-03-14 12:43:00,
2013-03-14 08:48:00,33.1,19.1,30.10,West,267,5.0,17.0,56,0.00,,,0.00,WUHU216DAVISVP2,2013-03-14 12:48:00,
2013-03-14 08:53:00,33.5,19.5,30.10,West,266,5.0,12.0,56,0.00,,,0.00,WUHU216DAVISVP2,2013-03-14 12:53:00,
2013-03-14 08:58:00,34.0,19.5,30.10,WNW,302,12.0,12.0,55,0.00,,,0.00,WUHU216DAVISVP2,2013-03-14 12:58:00,
2013-03-14 09:03:00,34.4,19.9,30.11,WNW,299,4.0,12.0,55,0.00,,,0.00,WUHU216DAVISVP2,2013-03-14 13:03:00,
2013-03-14 09:08:00,34.8,20.3,30.11,NNW,338,3.0,12.0,55,0.00,,,0.00,WUHU216DAVISVP2,2013-03-14 13:08:00,
2013-03-14 09:13:00,35.1,19.7,30.11,WSW,256,6.0,17.0,53,0.00,,,0.00,WUHU216DAVISVP2,2013-03-14 13:13:00,
2013-03-14 09:18:00,35.3,19.8,30.11,WNW,286,11.0,17.0,53,0.00,,,0.00,WUHU216DAVISVP2,2013-03-14 13:18:00,
2013-03-14 09:23:00,35.5,19.6,30.11,West,270,3.0,17.0,52,0.00,,,0.00,WUHU216DAVISVP2,2013-03-14 13:23:00,
2013-03-14 09:28:00,35.7,19.3,30.11,NNW,340,2.0,17.0,51,0.00,,,0.00,WUHU216DAVISVP2,2013-03-14 13:28:00,
2013-03-14 09:33:00,35.9,19.5,30.11,NW,319,5.0,15.0,51,0.00,,,0.00,WUHU216DAVISVP2,2013-03-14 13:33:00,
2013-03-14 09:38:00,36.0,18.6,30.11,NW,321,10.0,18.0,49,0.00,,,0.00,WUHU216DAVISVP2,2013-03-14 13:38:00,
2013-03-14 09:43:00,36.1,19.7,30.11,WNW,300,4.0,18.0,51,0.00,,,0.00,WUHU216DAVISVP2,2013-03-14 13:43:00,
2013-03-14 09:48:00,36.4,19.5,30.11,NNW,331,3.0,18.0,50,0.00,,,0.00,WUHU216DAVISVP2,2013-03-14 13:48:00,
2013-03-14 09:53:00,36.2,18.8,30.12,WSW,255,8.0,18.0,49,0.00,,,0.00,WUHU216DAVISVP2,2013-03-14 13:53:00,
2013-03-14 09:58:00,36.2,18.8,30.11,NNW,329,4.0,17.0,49,0.00,,,0.00,WUHU216DAVISVP2,2013-03-14 13:58:00,
2013-03-14 10:03:00,36.7,19.3,30.12,WNW,288,5.0,17.0,49,0.00,,,0.00,WUHU216DAVISVP2,2013-03-14 14:03:00,
2013-03-14 10:08:00,37.0,19.5,30.11,NW,325,1.0,17.0,49,0.00,,,0.00,WUHU216DAVISVP2,2013-03-14 14:08:00,
2013-03-14 10:13:00,37.4,19.4,30.11,WSW,251,9.0,15.0,48,0.00,,,0.00,WUHU216DAVISVP2,2013-03-14 14:13:00,
2013-03-14 10:18:00,36.9,18.4,30.11,West,262,4.0,17.0,47,0.00,,,0.00,WUHU216DAVISVP2,2013-03-14 14:18:00,
2013-03-14 10:23:00,37.1,18.6,30.11,North,360,4.0,17.0,47,0.00,,,0.00,WUHU216DAVISVP2,2013-03-14 14:23:00,
2013-03-14 10:28:00,37.6,19.6,30.11,West,273,12.0,17.0,48,0.00,,,0.00,WUHU216DAVISVP2,2013-03-14 14:28:00,
2013-03-14 10:33:00,37.8,19.3,30.11,West,274,6.0,19.0,47,0.00,,,0.00,WUHU216DAVISVP2,2013-03-14 14:33:00,
2013-03-14 10:38:00,38.0,19.0,30.11,WNW,295,10.0,25.0,46,0.00,,,0.00,WUHU216DAVISVP2,2013-03-14 14:38:00,
2013-03-14 10:43:00,37.9,18.9,30.11,WNW,302,5.0,25.0,46,0.00,,,0.00,WUHU216DAVISVP2,2013-03-14 14:43:00,
2013-03-14 10:48:00,38.0,18.0,30.11,WSW,246,12.0,26.0,44,0.00,,,0.00,WUHU216DAVISVP2,2013-03-14 14:48:00,
2013-03-14 10:53:00,38.0,19.5,30.10,WNW,284,12.0,26.0,47,0.00,,,0.00,WUHU216DAVISVP2,2013-03-14 14:53:00,
2013-03-14 10:58:00,38.2,18.2,30.11,West,280,2.0,26.0,44,0.00,,,0.00,WUHU216DAVISVP2,2013-03-14 14:58:00,
2013-03-14 11:03:00,38.5,19.0,30.11,WNW,297,5.0,26.0,45,0.00,,,0.00,WUHU216DAVISVP2,2013-03-14 15:03:00,
2013-03-14 11:08:00,38.7,19.2,30.11,North,9,6.0,25.0,45,0.00,,,0.00,WUHU216DAVISVP2,2013-03-14 15:08:00,
2013-03-14 11:13:00,38.6,18.4,30.10,SSE,166,1.0,19.0,44,0.00,,,0.00,WUHU216DAVISVP2,2013-03-14 15:13:00,
2013-03-14 11:18:00,38.6,19.1,30.10,NW,317,6.0,19.0,45,0.00,,,0.00,WUHU216DAVISVP2,2013-03-14 15:18:00,
2013-03-14 11:23:00,39.1,19.5,30.10,West,259,3.0,19.0,45,0.00,,,0.00,WUHU216DAVISVP2,2013-03-14 15:23:00,
2013-03-14 11:28:00,38.6,18.4,30.11,North,355,3.0,26.0,44,0.00,,,0.00,WUHU216DAVISVP2,2013-03-14 15:28:00,
2013-03-14 11:33:00,39.0,18.8,30.10,WSW,255,11.0,26.0,44,0.00,,,0.00,WUHU216DAVISVP2,2013-03-14 15:33:00,
2013-03-14 11:38:00,39.0,18.2,30.10,West,262,4.0,26.0,43,0.00,,,0.00,WUHU216DAVISVP2,2013-03-14 15:38:00,
2013-03-14 11:43:00,38.8,18.7,30.10,West,271,12.0,26.0,44,0.00,,,0.00,WUHU216DAVISVP2,2013-03-14 15:43:00,
2013-03-14 11:48:00,38.8,19.1,30.10,NNW,332,2.0,18.0,45,0.00,,,0.00,WUHU216DAVISVP2,2013-03-14 15:48:00,
2013-03-14 11:53:00,38.7,18.5,30.09,WSW,241,8.0,19.0,44,0.00,,,0.00,WUHU216DAVISVP2,2013-03-14 15:53:00,
2013-03-14 11:58:00,38.7,18.0,30.09,WNW,284,10.0,19.0,43,0.00,,,0.00,WUHU216DAVISVP2,2013-03-14 15:58:00,
2013-03-14 12:03:00,38.9,19.3,30.09,West,264,8.0,19.0,45,0.00,,,0.00,WUHU216DAVISVP2,2013-03-14 16:03:00,
2013-03-14 12:08:00,39.5,19.2,30.08,West,274,11.0,23.0,44,0.00,,,0.00,WUHU216DAVISVP2,2013-03-14 16:08:00,
2013-03-14 12:13:00,40.0,19.7,30.08,WNW,287,5.0,23.0,44,0.00,,,0.00,WUHU216DAVISVP2,2013-03-14 16:13:00,
2013-03-14 12:18:00,40.3,20.0,30.08,North,5,5.0,23.0,44,0.00,,,0.00,WUHU216DAVISVP2,2013-03-14 16:18:00,
2013-03-14 12:24:00,40.8,20.4,30.08,WSW,238,11.0,23.0,44,0.00,,,0.00,WUHU216DAVISVP2,2013-03-14 16:24:00,
2013-03-14 12:29:00,40.3,19.4,30.08,WNW,292,10.0,21.0,43,0.00,,,0.00,WUHU216DAVISVP2,2013-03-14 16:29:00,
2013-03-14 12:34:00,40.3,19.4,30.08,North,11,2.0,21.0,43,0.00,,,0.00,WUHU216DAVISVP2,2013-03-14 16:34:00,
2013-03-14 12:39:00,40.6,19.7,30.08,West,279,12.0,21.0,43,0.00,,,0.00,WUHU216DAVISVP2,2013-03-14 16:39:00,
2013-03-14 12:44:00,40.3,18.8,30.08,West,260,10.0,21.0,42,0.00,,,0.00,WUHU216DAVISVP2,2013-03-14 16:44:00,
2013-03-14 12:49:00,40.9,20.5,30.08,WNW,285,2.0,19.0,44,0.00,,,0.00,WUHU216DAVISVP2,2013-03-14 16:49:00,
2013-03-14 12:54:00,41.1,20.7,30.08,West,277,8.0,19.0,44,0.00,,,0.00,WUHU216DAVISVP2,2013-03-14 16:54:00,
2013-03-14 12:59:00,41.1,19.0,30.07,WNW,296,3.0,19.0,41,0.00,,,0.00,WUHU216DAVISVP2,2013-03-14 16:59:00,
2013-03-14 13:04:00,41.4,19.8,30.07,WNW,285,5.0,17.0,42,0.00,,,0.00,WUHU216DAVISVP2,2013-03-14 17:04:00,
2013-03-14 13:09:00,41.8,20.2,30.07,West,269,9.0,15.0,42,0.00,,,0.00,WUHU216DAVISVP2,2013-03-14 17:09:00,
2013-03-14 13:14:00,41.5,19.4,30.07,NW,317,3.0,17.0,41,0.00,,,0.00,WUHU216DAVISVP2,2013-03-14 17:14:00,
2013-03-14 13:19:00,42.1,20.5,30.07,WNW,295,13.0,17.0,42,0.00,,,0.00,WUHU216DAVISVP2,2013-03-14 17:19:00,
2013-03-14 13:24:00,42.2,20.0,30.07,West,278,3.0,21.0,41,0.00,,,0.00,WUHU216DAVISVP2,2013-03-14 17:24:00,
2013-03-14 13:29:00,42.3,19.5,30.06,North,355,3.0,21.0,40,0.00,,,0.00,WUHU216DAVISVP2,2013-03-14 17:29:00,
2013-03-14 13:34:00,42.4,20.7,30.06,West,279,3.0,21.0,42,0.00,,,0.00,WUHU216DAVISVP2,2013-03-14 17:34:00,
2013-03-14 13:39:00,43.0,20.1,30.06,WSW,254,4.0,20.0,40,0.00,,,0.00,WUHU216DAVISVP2,2013-03-14 17:39:00,
2013-03-14 13:44:00,43.1,19.6,30.06,SW,229,3.0,15.0,39,0.00,,,0.00,WUHU216DAVISVP2,2013-03-14 17:44:00,
2013-03-14 13:49:00,43.2,20.3,30.06,NW,319,11.0,15.0,40,0.00,,,0.00,WUHU216DAVISVP2,2013-03-14 17:49:00,
2013-03-14 13:54:00,43.3,19.8,30.06,WNW,298,10.0,18.0,39,0.00,,,0.00,WUHU216DAVISVP2,2013-03-14 17:54:00,
2013-03-14 13:59:00,43.6,21.3,30.05,West,274,5.0,18.0,41,0.00,,,0.00,WUHU216DAVISVP2,2013-03-14 17:59:00,
2013-03-14 14:04:00,43.7,20.1,30.05,NE,45,6.0,18.0,39,0.00,,,0.00,WUHU216DAVISVP2,2013-03-14 18:04:00,
2013-03-14 14:09:00,44.1,20.5,30.04,WNW,292,5.0,17.0,39,0.00,,,0.00,WUHU216DAVISVP2,2013-03-14 18:09:00,
2013-03-14 14:14:00,44.2,21.2,30.04,West,262,10.0,17.0,40,0.00,,,0.00,WUHU216DAVISVP2,2013-03-14 18:14:00,
2013-03-14 14:19:00,44.1,19.2,30.04,NNW,327,5.0,17.0,37,0.00,,,0.00,WUHU216DAVISVP2,2013-03-14 18:19:00,
2013-03-14 14:24:00,44.2,19.3,30.05,NW,316,3.0,17.0,37,0.00,,,0.00,WUHU216DAVISVP2,2013-03-14 18:24:00,
2013-03-14 14:29:00,44.4,20.2,30.04,WNW,292,6.0,17.0,38,0.00,,,0.00,WUHU216DAVISVP2,2013-03-14 18:29:00,
2013-03-14 14:34:00,44.6,19.9,30.04,West,276,10.0,17.0,37,0.00,,,0.00,WUHU216DAVISVP2,2013-03-14 18:34:00,
2013-03-14 14:39:00,44.6,19.7,30.04,NE,39,5.0,15.0,37,0.00,,,0.00,WUHU216DAVISVP2,2013-03-14 18:39:00,
2013-03-14 14:44:00,44.5,19.6,30.03,NW,317,5.0,15.0,37,0.00,,,0.00,WUHU216DAVISVP2,2013-03-14 18:44:00,
2013-03-14 14:49:00,44.2,18.7,30.02,West,259,18.0,19.0,36,0.00,,,0.00,WUHU216DAVISVP2,2013-03-14 18:49:00,
2013-03-14 14:54:00,44.1,19.9,30.03,West,272,13.0,21.0,38,0.00,,,0.00,WUHU216DAVISVP2,2013-03-14 18:54:00,
2013-03-14 14:59:00,44.3,19.0,30.03,WNW,300,5.0,24.0,36,0.00,,,0.00,WUHU216DAVISVP2,2013-03-14 18:59:00,
2013-03-14 15:04:00,44.7,19.3,30.02,NE,35,3.0,24.0,36,0.00,,,0.00,WUHU216DAVISVP2,2013-03-14 19:04:00,
2013-03-14 15:09:00,45.3,19.7,30.02,East,94,10.0,24.0,36,0.00,,,0.00,WUHU216DAVISVP2,2013-03-14 19:09:00,
2013-03-14 15:14:00,45.4,18.4,30.02,WNW,298,8.0,18.0,34,0.00,,,0.00,WUHU216DAVISVP2,2013-03-14 19:14:00,
2013-03-14 15:19:00,45.4,19.1,30.02,WNW,302,6.0,17.0,35,0.00,,,0.00,WUHU216DAVISVP2,2013-03-14 19:19:00,
2013-03-14 15:24:00,45.3,19.0,30.02,WNW,301,1.0,17.0,35,0.00,,,0.00,WUHU216DAVISVP2,2013-03-14 19:24:00,
2013-03-14 15:29:00,45.7,18.0,30.02,WSW,244,13.0,18.0,33,0.00,,,0.00,WUHU216DAVISVP2,2013-03-14 19:29:00,
2013-03-14 15:34:00,45.5,17.1,30.02,West,280,5.0,20.0,32,0.00,,,0.00,WUHU216DAVISVP2,2013-03-14 19:34:00,
2013-03-14 15:39:00,45.1,18.1,30.02,NW,320,0.0,20.0,34,0.00,,,0.00,WUHU216DAVISVP2,2013-03-14 19:39:00,
2013-03-14 15:44:00,45.2,18.2,30.02,NW,323,5.0,20.0,34,0.00,,,0.00,WUHU216DAVISVP2,2013-03-14 19:44:00,
2013-03-14 15:49:00,45.2,17.5,30.02,North,11,7.0,20.0,33,0.00,,,0.00,WUHU216DAVISVP2,2013-03-14 19:49:00,
2013-03-14 15:54:00,45.1,17.5,30.02,West,267,6.0,16.0,33,0.00,,,0.00,WUHU216DAVISVP2,2013-03-14 19:54:00,
2013-03-14 15:59:00,45.5,17.8,30.02,NW,314,10.0,16.0,33,0.00,,,0.00,WUHU216DAVISVP2,2013-03-14 19:59:00,
2013-03-14 16:04:00,45.3,16.9,30.02,NW,306,8.0,20.0,32,0.00,,,0.00,WUHU216DAVISVP2,2013-03-14 20:04:00,
2013-03-14 16:09:00,44.9,17.3,30.02,WNW,300,13.0,20.0,33,0.00,,,0.00,WUHU216DAVISVP2,2013-03-14 20:09:00,
2013-03-14 16:14:00,44.7,16.4,30.02,North,5,10.0,20.0,32,0.00,,,0.00,WUHU216DAVISVP2,2013-03-14 20:14:00,
2013-03-14 16:19:00,44.7,17.8,30.02,West,278,5.0,23.0,34,0.00,,,0.00,WUHU216DAVISVP2,2013-03-14 20:19:00,
2013-03-14 16:24:00,44.9,18.0,30.01,WSW,257,8.0,23.0,34,0.00,,,0.00,WUHU216DAVISVP2,2013-03-14 20:24:00,
2013-03-14 16:29:00,44.9,18.0,30.01,NW,324,4.0,25.0,34,0.00,,,0.00,WUHU216DAVISVP2,2013-03-14 20:29:00,
2013-03-14 16:34:00,45.4,19.1,30.01,WNW,300,4.0,25.0,35,0.00,,,0.00,WUHU216DAVISVP2,2013-03-14 20:34:00,
2013-03-14 16:39:00,45.5,17.8,30.01,NW,305,6.0,25.0,33,0.00,,,0.00,WUHU216DAVISVP2,2013-03-14 20:39:00,
2013-03-14 16:44:00,45.4,18.4,30.01,NW,323,4.0,19.0,34,0.00,,,0.00,WUHU216DAVISVP2,2013-03-14 20:44:00,
2013-03-14 16:49:00,45.3,17.6,30.01,WNW,282,3.0,20.0,33,0.00,,,0.00,WUHU216DAVISVP2,2013-03-14 20:49:00,
2013-03-14 16:54:00,45.3,16.9,30.01,WNW,285,5.0,20.0,32,0.00,,,0.00,WUHU216DAVISVP2,2013-03-14 20:54:00,
2013-03-14 16:59:00,45.1,18.1,30.01,West,262,7.0,20.0,34,0.00,,,0.00,WUHU216DAVISVP2,2013-03-14 20:59:00,
2013-03-14 17:04:00,45.0,18.1,30.01,NW,325,4.0,20.0,34,0.00,,,0.00,WUHU216DAVISVP2,2013-03-14 21:04:00,
2013-03-14 17:09:00,45.2,17.5,30.01,West,275,7.0,22.0,33,0.00,,,0.00,WUHU216DAVISVP2,2013-03-14 21:09:00,
2013-03-14 17:14:00,45.1,18.8,30.01,North,355,5.0,22.0,35,0.00,,,0.00,WUHU216DAVISVP2,2013-03-14 21:14:00,
2013-03-14 17:20:00,45.0,17.4,30.01,North,355,5.0,22.0,33,0.00,,,0.00,WUHU216DAVISVP2,2013-03-14 21:20:00,
2013-03-14 17:25:00,44.8,17.9,30.01,NNE,13,6.0,22.0,34,0.00,,,0.00,WUHU216DAVISVP2,2013-03-14 21:25:00,
2013-03-14 17:30:00,44.7,17.8,30.01,North,360,2.0,21.0,34,0.00,,,0.00,WUHU216DAVISVP2,2013-03-14 21:30:00,
2013-03-14 17:35:00,44.7,18.5,30.01,NW,305,6.0,21.0,35,0.00,,,0.00,WUHU216DAVISVP2,2013-03-14 21:35:00,
2013-03-14 17:40:00,44.6,17.0,30.01,West,267,4.0,21.0,33,0.00,,,0.00,WUHU216DAVISVP2,2013-03-14 21:40:00,
2013-03-14 17:45:00,44.4,16.8,30.01,NNW,328,7.0,21.0,33,0.00,,,0.00,WUHU216DAVISVP2,2013-03-14 21:45:00,
2013-03-14 17:50:00,44.3,16.7,30.01,NW,310,6.0,20.0,33,0.00,,,0.00,WUHU216DAVISVP2,2013-03-14 21:50:00,
2013-03-14 17:55:00,44.6,17.7,30.02,West,261,5.0,20.0,34,0.00,,,0.00,WUHU216DAVISVP2,2013-03-14 21:55:00,
2013-03-14 18:00:00,44.4,17.5,30.02,West,265,12.0,19.0,34,0.00,,,0.00,WUHU216DAVISVP2,2013-03-14 22:00:00,
2013-03-14 18:05:00,43.9,17.1,30.02,West,267,13.0,18.0,34,0.00,,,0.00,WUHU216DAVISVP2,2013-03-14 22:05:00,
2013-03-14 18:10:00,43.6,16.8,30.02,WNW,286,7.0,18.0,34,0.00,,,0.00,WUHU216DAVISVP2,2013-03-14 22:10:00,
2013-03-14 18:15:00,43.4,16.6,30.02,West,264,4.0,18.0,34,0.00,,,0.00,WUHU216DAVISVP2,2013-03-14 22:15:00,
2013-03-14 18:20:00,43.3,15.9,30.02,West,278,13.0,20.0,33,0.00,,,0.00,WUHU216DAVISVP2,2013-03-14 22:20:00,
2013-03-14 18:25:00,43.1,15.7,30.03,WNW,300,6.0,20.0,33,0.00,,,0.00,WUHU216DAVISVP2,2013-03-14 22:25:00,
2013-03-14 18:30:00,42.8,16.1,30.03,WNW,298,3.0,20.0,34,0.00,,,0.00,WUHU216DAVISVP2,2013-03-14 22:30:00,
2013-03-14 18:35:00,42.6,15.9,30.03,NW,304,11.0,20.0,34,0.00,,,0.00,WUHU216DAVISVP2,2013-03-14 22:35:00,
2013-03-14 18:40:00,42.5,16.5,30.03,WSW,254,12.0,17.0,35,0.00,,,0.00,WUHU216DAVISVP2,2013-03-14 22:40:00,
2013-03-14 18:45:00,42.4,16.4,30.03,WSW,255,2.0,16.0,35,0.00,,,0.00,WUHU216DAVISVP2,2013-03-14 22:45:00,
2013-03-14 18:50:00,42.1,16.2,30.03,West,276,4.0,16.0,35,0.00,,,0.00,WUHU216DAVISVP2,2013-03-14 22:50:00,
2013-03-14 18:55:00,41.8,16.6,30.03,West,279,10.0,15.0,36,0.00,,,0.00,WUHU216DAVISVP2,2013-03-14 22:55:00,
2013-03-14 19:00:00,41.5,16.3,30.04,NNW,347,5.0,14.0,36,0.00,,,0.00,WUHU216DAVISVP2,2013-03-14 23:00:00,
2013-03-14 19:05:00,41.3,16.1,30.04,North,9,5.0,18.0,36,0.00,,,0.00,WUHU216DAVISVP2,2013-03-14 23:05:00,
2013-03-14 19:10:00,41.1,15.9,30.04,West,259,3.0,18.0,36,0.00,,,0.00,WUHU216DAVISVP2,2013-03-14 23:10:00,
2013-03-14 19:15:00,41.0,17.1,30.04,WSW,250,11.0,18.0,38,0.00,,,0.00,WUHU216DAVISVP2,2013-03-14 23:15:00,
2013-03-14 19:20:00,40.9,17.0,30.05,WNW,296,5.0,18.0,38,0.00,,,0.00,WUHU216DAVISVP2,2013-03-14 23:20:00,
2013-03-14 19:25:00,40.7,16.8,30.05,NNW,346,4.0,11.0,38,0.00,,,0.00,WUHU216DAVISVP2,2013-03-14 23:25:00,
2013-03-14 19:30:00,40.5,17.3,30.05,WNW,282,1.0,11.0,39,0.00,,,0.00,WUHU216DAVISVP2,2013-03-14 23:30:00,
2013-03-14 19:35:00,40.3,17.1,30.05,WNW,297,5.0,14.0,39,0.00,,,0.00,WUHU216DAVISVP2,2013-03-14 23:35:00,
2013-03-14 19:40:00,40.2,17.0,30.05,West,275,2.0,14.0,39,0.00,,,0.00,WUHU216DAVISVP2,2013-03-14 23:40:00,
2013-03-14 19:45:00,40.1,17.5,30.05,WNW,287,0.0,14.0,40,0.00,,,0.00,WUHU216DAVISVP2,2013-03-14 23:45:00,
2013-03-14 19:50:00,39.9,17.3,30.05,WNW,283,5.0,16.0,40,0.00,,,0.00,WUHU216DAVISVP2,2013-03-14 23:50:00,
2013-03-14 19:55:00,40.0,17.4,30.05,WSW,255,6.0,16.0,40,0.00,,,0.00,WUHU216DAVISVP2,2013-03-14 23:55:00,
2013-03-14 20:00:00,39.8,17.8,30.05,West,269,0.0,16.0,41,0.00,,,0.00,WUHU216DAVISVP2,2013-03-15 00:00:00,
2013-03-14 20:05:00,39.6,18.2,30.06,WNW,286,1.0,16.0,42,0.00,,,0.00,WUHU216DAVISVP2,2013-03-15 00:05:00,
2013-03-14 20:10:00,39.3,17.9,30.06,WNW,287,1.0,7.0,42,0.00,,,0.00,WUHU216DAVISVP2,2013-03-15 00:10:00,
2013-03-14 20:15:00,39.1,17.8,30.06,West,265,1.0,5.0,42,0.00,,,0.00,WUHU216DAVISVP2,2013-03-15 00:15:00,
2013-03-14 20:20:00,38.9,17.6,30.06,West,269,3.0,6.0,42,0.00,,,0.00,WUHU216DAVISVP2,2013-03-15 00:20:00,
2013-03-14 20:25:00,38.8,18.0,30.06,WNW,298,1.0,7.0,43,0.00,,,0.00,WUHU216DAVISVP2,2013-03-15 00:25:00,
2013-03-14 20:30:00,38.8,18.0,30.06,West,267,3.0,7.0,43,0.00,,,0.00,WUHU216DAVISVP2,2013-03-15 00:30:00,
2013-03-14 20:35:00,38.7,18.0,30.06,West,279,3.0,7.0,43,0.00,,,0.00,WUHU216DAVISVP2,2013-03-15 00:35:00,
2013-03-14 20:40:00,38.4,18.2,30.06,NW,311,3.0,7.0,44,0.00,,,0.00,WUHU216DAVISVP2,2013-03-15 00:40:00,
2013-03-14 20:45:00,38.4,17.7,30.06,WNW,299,1.0,7.0,43,0.00,,,0.00,WUHU216DAVISVP2,2013-03-15 00:45:00,
2013-03-14 20:50:00,38.3,17.6,30.06,West,268,0.0,7.0,43,0.00,,,0.00,WUHU216DAVISVP2,2013-03-15 00:50:00,
2013-03-14 20:55:00,38.2,18.0,30.06,NW,310,4.0,7.0,44,0.00,,,0.00,WUHU216DAVISVP2,2013-03-15 00:55:00,
2013-03-14 21:00:00,38.2,18.0,30.06,NW,316,2.0,9.0,44,0.00,,,0.00,WUHU216DAVISVP2,2013-03-15 01:00:00,
2013-03-14 21:05:00,38.2,18.0,30.06,West,265,9.0,9.0,44,0.00,,,0.00,WUHU216DAVISVP2,2013-03-15 01:05:00,
2013-03-14 21:10:00,38.2,17.5,30.06,West,271,1.0,11.0,43,0.00,,,0.00,WUHU216DAVISVP2,2013-03-15 01:10:00,
2013-03-14 21:15:00,38.2,18.0,30.06,WNW,283,0.0,11.0,44,0.00,,,0.00,WUHU216DAVISVP2,2013-03-15 01:15:00,
2013-03-14 21:20:00,38.1,18.0,30.06,WNW,290,2.0,11.0,44,0.00,,,0.00,WUHU216DAVISVP2,2013-03-15 01:20:00,
2013-03-14 21:25:00,38.0,17.9,30.06,NW,305,2.0,8.0,44,0.00,,,0.00,WUHU216DAVISVP2,2013-03-15 01:25:00,
2013-03-14 21:30:00,38.0,17.9,30.06,WSW,242,8.0,10.0,44,0.00,,,0.00,WUHU216DAVISVP2,2013-03-15 01:30:00,
2013-03-14 21:35:00,38.1,18.0,30.07,West,265,5.0,10.0,44,0.00,,,0.00,WUHU216DAVISVP2,2013-03-15 01:35:00,
2013-03-14 21:40:00,38.2,18.0,30.06,West,264,1.0,10.0,44,0.00,,,0.00,WUHU216DAVISVP2,2013-03-15 01:40:00,
2013-03-14 21:45:00,38.2,18.0,30.07,West,279,8.0,10.0,44,0.00,,,0.00,WUHU216DAVISVP2,2013-03-15 01:45:00,
2013-03-14 21:50:00,38.1,18.0,30.07,West,265,2.0,10.0,44,0.00,,,0.00,WUHU216DAVISVP2,2013-03-15 01:50:00,
2013-03-14 21:55:00,38.1,18.0,30.07,WNW,288,2.0,9.0,44,0.00,,,0.00,WUHU216DAVISVP2,2013-03-15 01:55:00,
2013-03-14 22:00:00,38.2,17.5,30.07,WNW,292,3.0,11.0,43,0.00,,,0.00,WUHU216DAVISVP2,2013-03-15 02:00:00,
2013-03-14 22:05:00,38.1,18.0,30.07,West,265,5.0,11.0,44,0.00,,,0.00,WUHU216DAVISVP2,2013-03-15 02:05:00,
2013-03-14 22:10:00,38.0,18.4,30.07,WNW,288,3.0,14.0,45,0.00,,,0.00,WUHU216DAVISVP2,2013-03-15 02:10:00,
2013-03-14 22:15:00,38.0,17.9,30.07,WNW,301,3.0,14.0,44,0.00,,,0.00,WUHU216DAVISVP2,2013-03-15 02:15:00,
2013-03-14 22:20:00,38.0,17.9,30.07,WNW,283,2.0,14.0,44,0.00,,,0.00,WUHU216DAVISVP2,2013-03-15 02:20:00,
2013-03-14 22:25:00,38.0,17.9,30.07,WNW,292,2.0,9.0,44,0.00,,,0.00,WUHU216DAVISVP2,2013-03-15 02:25:00,
2013-03-14 22:30:00,37.9,17.8,30.07,NW,308,5.0,12.0,44,0.00,,,0.00,WUHU216DAVISVP2,2013-03-15 02:30:00,
2013-03-14 22:35:00,37.9,18.3,30.07,West,273,0.0,12.0,45,0.00,,,0.00,WUHU216DAVISVP2,2013-03-15 02:35:00,
2013-03-14 22:40:00,37.8,18.2,30.07,West,261,3.0,12.0,45,0.00,,,0.00,WUHU216DAVISVP2,2013-03-15 02:40:00,
2013-03-14 22:46:00,37.8,18.2,30.07,West,263,4.0,12.0,45,0.00,,,0.00,WUHU216DAVISVP2,2013-03-15 02:46:00,
2013-03-14 22:51:00,37.7,18.1,30.07,West,264,2.0,8.0,45,0.00,,,0.00,WUHU216DAVISVP2,2013-03-15 02:51:00,
2013-03-14 22:56:00,37.6,18.6,30.07,WNW,284,5.0,8.0,46,0.00,,,0.00,WUHU216DAVISVP2,2013-03-15 02:56:00,
2013-03-14 23:01:00,37.5,17.9,30.07,West,277,3.0,11.0,45,0.00,,,0.00,WUHU216DAVISVP2,2013-03-15 03:01:00,
2013-03-14 23:06:00,37.5,18.5,30.07,West,280,4.0,11.0,46,0.00,,,0.00,WUHU216DAVISVP2,2013-03-15 03:06:00,
2013-03-14 23:11:00,37.4,18.4,30.08,West,277,1.0,11.0,46,0.00,,,0.00,WUHU216DAVISVP2,2013-03-15 03:11:00,
2013-03-14 23:16:00,37.3,18.3,30.08,West,271,2.0,11.0,46,0.00,,,0.00,WUHU216DAVISVP2,2013-03-15 03:16:00,
2013-03-14 23:21:00,37.2,18.2,30.08,West,272,5.0,7.0,46,0.00,,,0.00,WUHU216DAVISVP2,2013-03-15 03:21:00,
2013-03-14 23:26:00,37.2,18.7,30.08,West,272,2.0,7.0,47,0.00,,,0.00,WUHU216DAVISVP2,2013-03-15 03:26:00,
2013-03-14 23:31:00,37.0,18.5,30.08,West,273,3.0,7.0,47,0.00,,,0.00,WUHU216DAVISVP2,2013-03-15 03:31:00,
2013-03-14 23:36:00,36.8,18.8,30.08,West,260,4.0,7.0,48,0.00,,,0.00,WUHU216DAVISVP2,2013-03-15 03:36:00,
2013-03-14 23:41:00,36.7,18.8,30.08,West,273,3.0,6.0,48,0.00,,,0.00,WUHU216DAVISVP2,2013-03-15 03:41:00,
2013-03-14 23:46:00,36.6,18.7,30.08,West,271,1.0,6.0,48,0.00,,,0.00,WUHU216DAVISVP2,2013-03-15 03:46:00,
2013-03-14 23:51:00,36.5,18.6,30.08,West,260,4.0,6.0,48,0.00,,,0.00,WUHU216DAVISVP2,2013-03-15 03:51:00,
2013-03-14 23:56:00,36.4,19.0,30.08,WNW,285,2.0,6.0,49,0.00,,,0.00,WUHU216DAVISVP2,2013-03-15 03:56:00,